Hourly Weather Bolshie Klyuchi

Today, 17 June, Thursday

Time Temperature Precipitation Wind Pressure Humidity
00:00 +15°C° 0 mm 5 mps 748 mmHg 86%
01:00 +14°C° 0 mm 4 mps 748 mmHg 87%
02:00 +13°C° 0 mm 3 mps 749 mmHg 89%
03:00 +12°C° 0 mm 3 mps 749 mmHg 91%
04:00 +13°C° 0 mm 3 mps 750 mmHg 86%
05:00 +14°C° 0 mm 3 mps 750 mmHg 81%
06:00 +15°C° 0 mm 4 mps 751 mmHg 76%
07:00 +18°C° 0 mm 4 mps 751 mmHg 68%
08:00 +19°C° 0 mm 4 mps 751 mmHg 60%
09:00 +21°C° 0 mm 4 mps 751 mmHg 52%
10:00 +22°C° 0 mm 4 mps 752 mmHg 48%
11:00 +22°C° 0 mm 5 mps 752 mmHg 44%
12:00 +23°C° 0 mm 5 mps 752 mmHg 40%
13:00 +23°C° 0 mm 5 mps 752 mmHg 41%
14:00 +23°C° 0 mm 5 mps 752 mmHg 42%
15:00 +23°C° 0 mm 5 mps 752 mmHg 43%
16:00 +22°C° 0 mm 4 mps 753 mmHg 48%
17:00 +21°C° 0 mm 4 mps 753 mmHg 54%
18:00 +20°C° 0 mm 3 mps 753 mmHg 59%
19:00 +19°C° 0 mm 3 mps 754 mmHg 61%
20:00 +17°C° 0 mm 3 mps 754 mmHg 64%
21:00 +16°C° 0 mm 3 mps 755 mmHg 67%
22:00 +14°C° 0 mm 3 mps 755 mmHg 70%
23:00 +12°C° 0 mm 3 mps 755 mmHg 74%

Tomorrow, 18 June, Friday

Time Temperature Precipitation Wind Pressure Humidity
00:00 +12°C° 0 mm 2 mps 756 mmHg 77%
01:00 +10°C° 0 mm 2 mps 756 mmHg 77%
02:00 +10°C° 0 mm 2 mps 757 mmHg 76%
03:00 +9°C° 0 mm 2 mps 757 mmHg 76%
04:00 +10°C° 0 mm 3 mps 758 mmHg 73%
05:00 +11°C° 0 mm 3 mps 758 mmHg 70%
06:00 +12°C° 0 mm 4 mps 758 mmHg 67%
07:00 +14°C° 0 mm 4 mps 758 mmHg 60%
08:00 +15°C° 0 mm 5 mps 759 mmHg 53%
09:00 +16°C° 0 mm 5 mps 759 mmHg 46%
10:00 +17°C° 0 mm 5 mps 759 mmHg 44%
11:00 +19°C° 0 mm 5 mps 759 mmHg 42%
12:00 +20°C° 0 mm 5 mps 759 mmHg 40%
13:00 +20°C° 0 mm 4 mps 759 mmHg 40%
14:00 +21°C° 0 mm 4 mps 759 mmHg 41%
15:00 +21°C° 0 mm 4 mps 759 mmHg 41%
16:00 +21°C° 0 mm 3 mps 759 mmHg 47%
17:00 +20°C° 0 mm 2 mps 759 mmHg 53%
18:00 +21°C° 0 mm 1 mps 759 mmHg 59%
19:00 +19°C° 0 mm 1 mps 759 mmHg 61%
20:00 +18°C° 0 mm 1 mps 759 mmHg 63%
21:00 +15°C° 0 mm 1 mps 759 mmHg 65%
22:00 +15°C° 0 mm 2 mps 759 mmHg 68%
23:00 +14°C° 0 mm 2 mps 759 mmHg 72%

Day after tomorrow, 19 June, Saturday

Time Temperature Precipitation Wind Pressure Humidity
00:00 +13°C° 0 mm 2 mps 759 mmHg 75%
01:00 +13°C° 0 mm 2 mps 759 mmHg 77%
02:00 +12°C° 0 mm 3 mps 759 mmHg 80%
03:00 +12°C° 0 mm 3 mps 759 mmHg 82%
04:00 +13°C° 0 mm 3 mps 759 mmHg 80%
05:00 +14°C° 0 mm 4 mps 759 mmHg 77%
06:00 +17°C° 0 mm 4 mps 758 mmHg 75%
07:00 +19°C° 0 mm 4 mps 758 mmHg 71%
08:00 +20°C° 0 mm 5 mps 758 mmHg 67%
09:00 +22°C° 0 mm 5 mps 758 mmHg 64%
10:00 +24°C° 0 mm 6 mps 757 mmHg 61%
11:00 +26°C° 0 mm 6 mps 757 mmHg 58%
12:00 +27°C° 0 mm 6 mps 757 mmHg 55%
13:00 +27°C° 0 mm 6 mps 756 mmHg 55%
14:00 +28°C° 0 mm 7 mps 756 mmHg 55%
15:00 +28°C° 0 mm 7 mps 755 mmHg 56%
16:00 +27°C° 0 mm 7 mps 755 mmHg 60%
17:00 +26°C° 0 mm 6 mps 755 mmHg 64%
18:00 +26°C° 0 mm 6 mps 755 mmHg 68%
19:00 +23°C° 0 mm 6 mps 755 mmHg 73%
20:00 +22°C° 0 mm 5 mps 755 mmHg 77%
21:00 +21°C° 0 mm 5 mps 755 mmHg 81%
22:00 +20°C° 0 mm 4 mps 755 mmHg 82%
23:00 +19°C° 0 mm 4 mps 755 mmHg 84%

20 June, Sunday

Time Temperature Precipitation Wind Pressure Humidity
00:00 +19°C° 0 mm 4 mps 755 mmHg 86%
01:00 +18°C° 0 mm 3 mps 755 mmHg 88%
02:00 +18°C° 0 mm 3 mps 755 mmHg 91%
03:00 +17°C° 0 mm 3 mps 755 mmHg 93%
04:00 +19°C° 0 mm 3 mps 755 mmHg 89%
05:00 +20°C° 0 mm 3 mps 755 mmHg 85%
06:00 +21°C° 0 mm 4 mps 755 mmHg 81%
07:00 +23°C° 0 mm 4 mps 755 mmHg 75%
08:00 +25°C° 0 mm 4 mps 755 mmHg 68%
09:00 +27°C° 0 mm 4 mps 755 mmHg 61%
10:00 +28°C° 0 mm 4 mps 755 mmHg 57%
11:00 +29°C° 0 mm 4 mps 755 mmHg 52%
12:00 +30°C° 0 mm 4 mps 755 mmHg 48%
13:00 +30°C° 0 mm 4 mps 755 mmHg 49%
14:00 +30°C° 0 mm 4 mps 755 mmHg 49%
15:00 +30°C° 0 mm 3 mps 754 mmHg 50%
16:00 +29°C° 0 mm 3 mps 754 mmHg 56%
17:00 +28°C° 0 mm 2 mps 755 mmHg 63%
18:00 +27°C° 0 mm 2 mps 755 mmHg 69%
19:00 +26°C° 0 mm 2 mps 755 mmHg 72%
20:00 +25°C° 0 mm 1 mps 755 mmHg 74%
21:00 +24°C° 0 mm 1 mps 755 mmHg 77%
22:00 +24°C° 0 mm 1 mps 755 mmHg 79%
23:00 +24°C° 0 mm 1 mps 755 mmHg 80%

21 June, Monday

Time Temperature Precipitation Wind Pressure Humidity
00:00 +23°C° 0 mm 1 mps 755 mmHg 82%
01:00 +23°C° 0 mm 1 mps 755 mmHg 83%
02:00 +22°C° 0 mm 1 mps 755 mmHg 85%
03:00 +21°C° 0 mm 2 mps 755 mmHg 87%
04:00 +21°C° 0 mm 2 mps 755 mmHg 83%
05:00 +23°C° 0 mm 2 mps 755 mmHg 80%
06:00 +24°C° 0 mm 2 mps 755 mmHg 76%
07:00 +25°C° 0 mm 3 mps 755 mmHg 71%
08:00 +26°C° 0 mm 3 mps 755 mmHg 66%
09:00 +28°C° 0 mm 4 mps 755 mmHg 61%
10:00 +29°C° 0 mm 4 mps 755 mmHg 56%
11:00 +30°C° 0 mm 4 mps 755 mmHg 52%
12:00 +32°C° 0 mm 4 mps 754 mmHg 47%
13:00 +30°C° 0 mm 4 mps 754 mmHg 50%
14:00 +30°C° 0 mm 4 mps 754 mmHg 53%
15:00 +29°C° 0 mm 4 mps 754 mmHg 56%
16:00 +29°C° 0 mm 4 mps 754 mmHg 59%
17:00 +28°C° 0 mm 4 mps 753 mmHg 63%
18:00 +28°C° 0 mm 4 mps 753 mmHg 66%
19:00 +27°C° 0 mm 4 mps 753 mmHg 71%
20:00 +25°C° 0 mm 3 mps 753 mmHg 75%
21:00 +24°C° 0 mm 3 mps 753 mmHg 80%
22:00 +24°C° 0 mm 3 mps 753 mmHg 81%
23:00 +22°C° 0 mm 3 mps 753 mmHg 82%

22 June, Tuesday

Time Temperature Precipitation Wind Pressure Humidity
00:00 +21°C° 0 mm 3 mps 753 mmHg 83%
01:00 +21°C° 0 mm 3 mps 753 mmHg 81%
02:00 +21°C° 0 mm 3 mps 753 mmHg 79%
03:00 +21°C° 0 mm 3 mps 753 mmHg 77%
04:00 +22°C° 0 mm 3 mps 753 mmHg 76%
05:00 +22°C° 0 mm 3 mps 753 mmHg 74%
06:00 +24°C° 0 mm 3 mps 753 mmHg 73%
07:00 +25°C° 0 mm 4 mps 753 mmHg 68%
08:00 +27°C° 0 mm 4 mps 753 mmHg 62%
09:00 +29°C° 0 mm 4 mps 753 mmHg 57%
10:00 +30°C° 0 mm 5 mps 753 mmHg 52%
11:00 +32°C° 0 mm 5 mps 753 mmHg 47%
12:00 +34°C° 0 mm 5 mps 753 mmHg 42%
13:00 +34°C° 0 mm 5 mps 753 mmHg 43%
14:00 +34°C° 0 mm 5 mps 753 mmHg 44%
15:00 +34°C° 0 mm 5 mps 752 mmHg 45%
16:00 +33°C° 0 mm 4 mps 752 mmHg 50%
17:00 +31°C° 0 mm 3 mps 752 mmHg 55%
18:00 +30°C° 0 mm 3 mps 752 mmHg 59%
19:00 +28°C° 0 mm 3 mps 753 mmHg 64%
20:00 +27°C° 0 mm 2 mps 753 mmHg 68%
21:00 +25°C° 0 mm 2 mps 753 mmHg 73%
22:00 +24°C° 0 mm 2 mps 753 mmHg 75%
23:00 +23°C° 0 mm 2 mps 753 mmHg 78%
Show more